Location: Treviso
(45.6669°N, 12.2430°E)
Time: 16:24:15
(UTC+02:00)

ISS - Pass Details

Date: 18 May 2018
Orbit: 402 x 406 km, 51.6° (Epoch: 19 June)

Event Time Altitude Azimuth Distance (km) Brightness Sun altitude
Exits shadow 03:16:41 - 296° (WNW) 1,985 -0.4 -18.5°
Reaches altitude 10° 03:18:05 10° 305° (NW) 1,460 -1.0 -18.4°
Maximum altitude 03:21:00 29° 8° (N) 772 -1.8 -18.1°
Drops below altitude 10° 03:23:55 10° 71° (ENE) 1,458 -0.2 -17.8°
Sets 03:26:10 0° 83° (E) 2,317 0.6 -17.6°
